owner,sensor,date,latitude,longitude,vertical_datum,mass_concentration_of_oxygen_in_sea_water,qcFlag 
LUMCON,ioos:station:LUMCON:101:1,2019-03-01T00:30:00Z,29.2533,-90.6633,1.975,8.37,1111122 
LUMCON,ioos:station:LUMCON:101:1,2019-03-01T00:45:00Z,29.2533,-90.6633,1.967,8.58,1111122 
LUMCON,ioos:station:LUMCON:101:1,2019-03-01T01:00:00Z,29.2533,-90.6633,1.967,8.78,1111122 
LUMCON,ioos:station:LUMCON:101:1,2019-03-01T01:15:00Z,29.2533,-90.6633,1.966,8.74,1111122 
LUMCON,ioos:station:LUMCON:101:1,2019-03-01T01:30:00Z,29.2533,-90.6633,1.964,8.66,1111122 
LUMCON,ioos:station:LUMCON:101:1,2019-03-01T01:45:00Z,29.2533,-90.6633,1.958,8.53,1111122 
LUMCON,ioos:station:LUMCON:101:1,2019-03-01T02:00:00Z,29.2533,-90.6633,1.956,8.45,1111122 
LUMCON,ioos:station:LUMCON:101:1,2019-03-01T02:15:00Z,29.2533,-90.6633,1.954,8.35,1111122 
LUMCON,ioos:station:LUMCON:101:1,2019-03-01T02:30:00Z,29.2533,-90.6633,1.954,8.29,1111122 
LUMCON,ioos:station:LUMCON:101:1,2019-03-01T02:45:00Z,29.2533,-90.6633,1.951,8.27,1111122 
LUMCON,ioos:station:LUMCON:101:1,2019-03-01T03:00:00Z,29.2533,-90.6633,1.942,8.21,1111122 
LUMCON,ioos:station:LUMCON:101:1,2019-03-01T03:15:00Z,29.2533,-90.6633,1.936,8.15,1111122 
LUMCON,ioos:station:LUMCON:101:1,2019-03-01T03:30:00Z,29.2533,-90.6633,1.93,8.07,1111122 
LUMCON,ioos:station:LUMCON:101:1,2019-03-01T03:45:00Z,29.2533,-90.6633,1.921,7.99,1111122 
LUMCON,ioos:station:LUMCON:101:1,2019-03-01T04:00:00Z,29.2533,-90.6633,1.904,7.85,1111122 
LUMCON,ioos:station:LUMCON:101:1,2019-03-01T04:15:00Z,29.2533,-90.6633,1.908,7.78,1111122 
LUMCON,ioos:station:LUMCON:101:1,2019-03-01T04:30:00Z,29.2533,-90.6633,1.9,7.61,1111122 
LUMCON,ioos:station:LUMCON:101:1,2019-03-01T04:45:00Z,29.2533,-90.6633,1.904,7.52,1111122 
LUMCON,ioos:station:LUMCON:101:1,2019-03-01T05:00:00Z,29.2533,-90.6633,1.896,7.48,1111122 
LUMCON,ioos:station:LUMCON:101:1,2019-03-01T05:15:00Z,29.2533,-90.6633,1.885,7.43,1111122 
LUMCON,ioos:station:LUMCON:101:1,2019-03-01T05:30:00Z,29.2533,-90.6633,1.871,7.34,1111122 
LUMCON,ioos:station:LUMCON:101:1,2019-03-01T05:45:00Z,29.2533,-90.6633,1.865,7.18,1111122 
LUMCON,ioos:station:LUMCON:101:1,2019-03-01T06:00:00Z,29.2533,-90.6633,1.854,7.16,1111122 
LUMCON,ioos:station:LUMCON:101:1,2019-03-01T06:15:00Z,29.2533,-90.6633,1.843,7.1,1111122 
LUMCON,ioos:station:LUMCON:101:1,2019-03-01T06:30:00Z,29.2533,-90.6633,1.835,6.97,1111122 
LUMCON,ioos:station:LUMCON:101:1,2019-03-01T06:45:00Z,29.2533,-90.6633,1.814,6.84,1111122 
LUMCON,ioos:station:LUMCON:101:1,2019-03-01T07:00:00Z,29.2533,-90.6633,1.805,6.87,1111122 
LUMCON,ioos:station:LUMCON:101:1,2019-03-01T07:15:00Z,29.2533,-90.6633,1.802,6.74,1111122 
LUMCON,ioos:station:LUMCON:101:1,2019-03-01T07:30:00Z,29.2533,-90.6633,1.791,6.68,1111122 
LUMCON,ioos:station:LUMCON:101:1,2019-03-01T07:45:00Z,29.2533,-90.6633,1.784,6.81,1111122 
LUMCON,ioos:station:LUMCON:101:1,2019-03-01T08:00:00Z,29.2533,-90.6633,1.77,6.74,1111122 
LUMCON,ioos:station:LUMCON:101:1,2019-03-01T08:15:00Z,29.2533,-90.6633,1.754,6.77,1111122 
LUMCON,ioos:station:LUMCON:101:1,2019-03-01T08:30:00Z,29.2533,-90.6633,1.75,6.83,1111122 
LUMCON,ioos:station:LUMCON:101:1,2019-03-01T08:45:00Z,29.2533,-90.6633,1.741,6.75,1111122 
LUMCON,ioos:station:LUMCON:101:1,2019-03-01T09:00:00Z,29.2533,-90.6633,1.731,6.7,1111122 
LUMCON,ioos:station:LUMCON:101:1,2019-03-01T09:15:00Z,29.2533,-90.6633,1.718,6.73,1111122 
LUMCON,ioos:station:LUMCON:101:1,2019-03-01T09:30:00Z,29.2533,-90.6633,1.714,6.79,1111122 
LUMCON,ioos:station:LUMCON:101:1,2019-03-01T09:45:00Z,29.2533,-90.6633,1.71,6.82,1111122 
LUMCON,ioos:station:LUMCON:101:1,2019-03-01T10:00:00Z,29.2533,-90.6633,1.701,6.7,1111122 
LUMCON,ioos:station:LUMCON:101:1,2019-03-01T10:15:00Z,29.2533,-90.6633,1.696,6.82,1111122 
LUMCON,ioos:station:LUMCON:101:1,2019-03-01T10:30:00Z,29.2533,-90.6633,1.683,6.72,1111122 
LUMCON,ioos:station:LUMCON:101:1,2019-03-01T10:45:00Z,29.2533,-90.6633,1.671,6.68,1111122 
LUMCON,ioos:station:LUMCON:101:1,2019-03-01T11:00:00Z,29.2533,-90.6633,1.682,6.77,1111122 
LUMCON,ioos:station:LUMCON:101:1,2019-03-01T11:15:00Z,29.2533,-90.6633,1.694,6.82,1111122 
LUMCON,ioos:station:LUMCON:101:1,2019-03-01T11:30:00Z,29.2533,-90.6633,1.673,6.41,1111122 
LUMCON,ioos:station:LUMCON:101:1,2019-03-01T11:45:00Z,29.2533,-90.6633,1.648,6.58,1111122 
LUMCON,ioos:station:LUMCON:101:1,2019-03-01T12:00:00Z,29.2533,-90.6633,1.634,6.75,1111122 
LUMCON,ioos:station:LUMCON:101:1,2019-03-01T12:15:00Z,29.2533,-90.6633,1.623,6.47,1111122 
LUMCON,ioos:station:LUMCON:101:1,2019-03-01T12:30:00Z,29.2533,-90.6633,1.633,6.77,1111122 
LUMCON,ioos:station:LUMCON:101:1,2019-03-01T12:45:00Z,29.2533,-90.6633,1.664,6.77,1111122 
LUMCON,ioos:station:LUMCON:101:1,2019-03-01T13:00:00Z,29.2533,-90.6633,1.666,6.65,1111122 
LUMCON,ioos:station:LUMCON:101:1,2019-03-01T13:15:00Z,29.2533,-90.6633,1.648,6.67,1111122 
LUMCON,ioos:station:LUMCON:101:1,2019-03-01T13:30:00Z,29.2533,-90.6633,1.659,6.68,1111122 
LUMCON,ioos:station:LUMCON:101:1,2019-03-01T13:45:00Z,29.2533,-90.6633,1.643,6.64,1111122 
LUMCON,ioos:station:LUMCON:101:1,2019-03-01T14:00:00Z,29.2533,-90.6633,1.664,6.65,1111122 
LUMCON,ioos:station:LUMCON:101:1,2019-03-01T14:15:00Z,29.2533,-90.6633,1.672,6.51,1111122 
LUMCON,ioos:station:LUMCON:101:1,2019-03-01T14:30:00Z,29.2533,-90.6633,1.681,6.46,1111122 
LUMCON,ioos:station:LUMCON:101:1,2019-03-01T14:45:00Z,29.2533,-90.6633,1.715,6.57,1111122 
LUMCON,ioos:station:LUMCON:101:1,2019-03-04T17:45:00Z,29.2533,-90.6633,1.595,8.65,1111122 
LUMCON,ioos:station:LUMCON:101:1,2019-03-04T18:00:00Z,29.2533,-90.6633,1.606,8.62,1111122 
LUMCON,ioos:station:LUMCON:101:1,2019-03-04T18:15:00Z,29.2533,-90.6633,1.614,8.65,1111122 
LUMCON,ioos:station:LUMCON:101:1,2019-03-04T18:30:00Z,29.2533,-90.6633,1.628,8.7,1111122 
LUMCON,ioos:station:LUMCON:101:1,2019-03-04T18:45:00Z,29.2533,-90.6633,1.638,8.7,1111122 
LUMCON,ioos:station:LUMCON:101:1,2019-03-04T19:00:00Z,29.2533,-90.6633,1.645,8.74,1111122 
LUMCON,ioos:station:LUMCON:101:1,2019-03-04T19:15:00Z,29.2533,-90.6633,1.661,8.88,1111122 
LUMCON,ioos:station:LUMCON:101:1,2019-03-04T19:30:00Z,29.2533,-90.6633,1.683,8.81,1111122 
LUMCON,ioos:station:LUMCON:101:1,2019-03-04T19:45:00Z,29.2533,-90.6633,1.707,8.85,1111122 
LUMCON,ioos:station:LUMCON:101:1,2019-03-04T20:00:00Z,29.2533,-90.6633,1.722,8.92,1111122 
LUMCON,ioos:station:LUMCON:101:1,2019-03-04T21:30:00Z,29.2533,-90.6633,1.758,8.91,1111122 
LUMCON,ioos:station:LUMCON:101:1,2019-03-04T21:45:00Z,29.2533,-90.6633,1.762,8.89,1111122 
LUMCON,ioos:station:LUMCON:101:1,2019-03-04T22:00:00Z,29.2533,-90.6633,1.767,8.96,1111122 
LUMCON,ioos:station:LUMCON:101:1,2019-03-04T22:15:00Z,29.2533,-90.6633,1.779,8.97,1111122 
LUMCON,ioos:station:LUMCON:101:1,2019-03-04T22:30:00Z,29.2533,-90.6633,1.793,9.01,1111122 
LUMCON,ioos:station:LUMCON:101:1,2019-03-04T22:45:00Z,29.2533,-90.6633,1.799,8.97,1111122 
LUMCON,ioos:station:LUMCON:101:1,2019-03-04T23:00:00Z,29.2533,-90.6633,1.798,9.02,1111122 
LUMCON,ioos:station:LUMCON:101:1,2019-03-04T23:15:00Z,29.2533,-90.6633,1.808,9.0,1111122 
LUMCON,ioos:station:LUMCON:101:1,2019-03-04T23:30:00Z,29.2533,-90.6633,1.809,8.93,1111122 
LUMCON,ioos:station:LUMCON:101:1,2019-03-04T23:45:00Z,29.2533,-90.6633,1.806,8.81,1111122 
LUMCON,ioos:station:LUMCON:101:1,2019-03-05T00:00:00Z,29.2533,-90.6633,1.814,8.88,1111122 
LUMCON,ioos:station:LUMCON:101:1,2019-03-05T00:15:00Z,29.2533,-90.6633,1.806,9.0,1111122 
LUMCON,ioos:station:LUMCON:101:1,2019-03-05T00:30:00Z,29.2533,-90.6633,1.818,8.9,1111122 
LUMCON,ioos:station:LUMCON:101:1,2019-03-05T00:45:00Z,29.2533,-90.6633,1.818,9.02,1111122 
LUMCON,ioos:station:LUMCON:101:1,2019-03-05T01:00:00Z,29.2533,-90.6633,1.833,9.24,1111122 
LUMCON,ioos:station:LUMCON:101:1,2019-03-05T01:15:00Z,29.2533,-90.6633,1.83,9.11,1111122 
LUMCON,ioos:station:LUMCON:101:1,2019-03-05T01:30:00Z,29.2533,-90.6633,1.838,9.05,1111122 
LUMCON,ioos:station:LUMCON:101:1,2019-03-05T01:45:00Z,29.2533,-90.6633,1.848,9.19,1111122 
LUMCON,ioos:station:LUMCON:101:1,2019-03-05T02:00:00Z,29.2533,-90.6633,1.846,9.26,1111122 
LUMCON,ioos:station:LUMCON:101:1,2019-03-05T02:15:00Z,29.2533,-90.6633,1.843,9.15,1111122 
LUMCON,ioos:station:LUMCON:101:1,2019-03-05T02:30:00Z,29.2533,-90.6633,1.83,9.3,1111122 
LUMCON,ioos:station:LUMCON:101:1,2019-03-05T02:45:00Z,29.2533,-90.6633,1.815,9.35,1111122 
LUMCON,ioos:station:LUMCON:101:1,2019-03-05T03:00:00Z,29.2533,-90.6633,1.806,9.31,1111122 
LUMCON,ioos:station:LUMCON:101:1,2019-03-05T03:15:00Z,29.2533,-90.6633,1.815,9.22,1111122 
LUMCON,ioos:station:LUMCON:101:1,2019-03-05T03:30:00Z,29.2533,-90.6633,1.817,9.19,1111122 
LUMCON,ioos:station:LUMCON:101:1,2019-03-05T03:45:00Z,29.2533,-90.6633,1.836,9.18,1111122 
LUMCON,ioos:station:LUMCON:101:1,2019-03-05T04:00:00Z,29.2533,-90.6633,1.854,9.04,1111122 
LUMCON,ioos:station:LUMCON:101:1,2019-03-05T04:15:00Z,29.2533,-90.6633,1.851,9.11,1111122 
LUMCON,ioos:station:LUMCON:101:1,2019-03-05T04:30:00Z,29.2533,-90.6633,1.845,9.04,1111122 
LUMCON,ioos:station:LUMCON:101:1,2019-03-05T04:45:00Z,29.2533,-90.6633,1.824,9.19,1111122 
LUMCON,ioos:station:LUMCON:101:1,2019-03-05T05:00:00Z,29.2533,-90.6633,1.802,9.09,1111122 
LUMCON,ioos:station:LUMCON:101:1,2019-03-05T05:15:00Z,29.2533,-90.6633,1.805,9.12,1111122 
LUMCON,ioos:station:LUMCON:101:1,2019-03-05T05:30:00Z,29.2533,-90.6633,1.81,9.17,1111122 
LUMCON,ioos:station:LUMCON:101:1,2019-03-05T05:45:00Z,29.2533,-90.6633,1.805,9.2,1111122 
LUMCON,ioos:station:LUMCON:101:1,2019-03-05T06:00:00Z,29.2533,-90.6633,1.803,9.18,1111122 
LUMCON,ioos:station:LUMCON:101:1,2019-03-06T10:45:00Z,29.2533,-90.6633,1.579,10.01,1111122 
LUMCON,ioos:station:LUMCON:101:1,2019-03-06T11:00:00Z,29.2533,-90.6633,1.567,10.0,1111122 
LUMCON,ioos:station:LUMCON:101:1,2019-03-06T11:15:00Z,29.2533,-90.6633,1.559,10.03,1111122 
LUMCON,ioos:station:LUMCON:101:1,2019-03-06T11:30:00Z,29.2533,-90.6633,1.55,10.02,1111122 
LUMCON,ioos:station:LUMCON:101:1,2019-03-06T11:45:00Z,29.2533,-90.6633,1.539,10.04,1111122 
LUMCON,ioos:station:LUMCON:101:1,2019-03-06T12:00:00Z,29.2533,-90.6633,1.534,10.07,1111122 
LUMCON,ioos:station:LUMCON:101:1,2019-03-06T12:15:00Z,29.2533,-90.6633,1.528,10.12,1111122 
LUMCON,ioos:station:LUMCON:101:1,2019-03-06T12:30:00Z,29.2533,-90.6633,1.526,10.15,1111122 
LUMCON,ioos:station:LUMCON:101:1,2019-03-06T12:45:00Z,29.2533,-90.6633,1.525,10.18,1111122 
LUMCON,ioos:station:LUMCON:101:1,2019-03-06T13:00:00Z,29.2533,-90.6633,1.527,10.19,1111122 
LUMCON,ioos:station:LUMCON:101:1,2019-03-06T13:15:00Z,29.2533,-90.6633,1.516,10.24,1111122 
LUMCON,ioos:station:LUMCON:101:1,2019-03-06T13:30:00Z,29.2533,-90.6633,1.506,10.34,1111122 
LUMCON,ioos:station:LUMCON:101:1,2019-03-06T13:45:00Z,29.2533,-90.6633,1.501,10.37,1111122 
LUMCON,ioos:station:LUMCON:101:1,2019-03-06T14:00:00Z,29.2533,-90.6633,1.504,10.45,1111122 
LUMCON,ioos:station:LUMCON:101:1,2019-03-06T14:15:00Z,29.2533,-90.6633,1.5,10.5,1111122 
LUMCON,ioos:station:LUMCON:101:1,2019-03-06T14:30:00Z,29.2533,-90.6633,1.502,10.58,1111122 
LUMCON,ioos:station:LUMCON:101:1,2019-03-06T14:45:00Z,29.2533,-90.6633,1.504,10.61,1111122 
LUMCON,ioos:station:LUMCON:101:1,2019-03-06T15:00:00Z,29.2533,-90.6633,1.497,10.66,1111122 
LUMCON,ioos:station:LUMCON:101:1,2019-03-06T15:15:00Z,29.2533,-90.6633,1.496,10.71,1111122 
LUMCON,ioos:station:LUMCON:101:1,2019-03-06T15:30:00Z,29.2533,-90.6633,1.494,10.76,1111122 
LUMCON,ioos:station:LUMCON:101:1,2019-03-06T15:45:00Z,29.2533,-90.6633,1.502,10.71,1111122 
LUMCON,ioos:station:LUMCON:101:1,2019-03-06T16:00:00Z,29.2533,-90.6633,1.509,10.73,1111122 
LUMCON,ioos:station:LUMCON:101:1,2019-03-06T16:15:00Z,29.2533,-90.6633,1.521,10.68,1111122 
LUMCON,ioos:station:LUMCON:101:1,2019-03-06T16:30:00Z,29.2533,-90.6633,1.53,10.62,1111122 
LUMCON,ioos:station:LUMCON:101:1,2019-03-06T16:45:00Z,29.2533,-90.6633,1.533,10.62,1111122 
LUMCON,ioos:station:LUMCON:101:1,2019-03-06T17:00:00Z,29.2533,-90.6633,1.531,10.6,1111122 
LUMCON,ioos:station:LUMCON:101:1,2019-03-06T17:15:00Z,29.2533,-90.6633,1.525,10.63,1111122 
LUMCON,ioos:station:LUMCON:101:1,2019-03-06T17:30:00Z,29.2533,-90.6633,1.536,10.6,1111122 
LUMCON,ioos:station:LUMCON:101:1,2019-03-06T17:45:00Z,29.2533,-90.6633,1.545,10.61,1111122 
LUMCON,ioos:station:LUMCON:101:1,2019-03-06T18:00:00Z,29.2533,-90.6633,1.556,10.61,1111122 
LUMCON,ioos:station:LUMCON:101:1,2019-03-06T18:15:00Z,29.2533,-90.6633,1.565,10.61,1111122 
LUMCON,ioos:station:LUMCON:101:1,2019-03-06T18:30:00Z,29.2533,-90.6633,1.576,10.61,1111122 
LUMCON,ioos:station:LUMCON:101:1,2019-03-06T18:45:00Z,29.2533,-90.6633,1.587,10.6,1111122 
LUMCON,ioos:station:LUMCON:101:1,2019-03-06T19:00:00Z,29.2533,-90.6633,1.595,10.6,1111122 
LUMCON,ioos:station:LUMCON:101:1,2019-03-06T19:15:00Z,29.2533,-90.6633,1.614,10.59,1111122 
LUMCON,ioos:station:LUMCON:101:1,2019-03-06T19:30:00Z,29.2533,-90.6633,1.623,10.57,1111122 
LUMCON,ioos:station:LUMCON:101:1,2019-03-06T19:45:00Z,29.2533,-90.6633,1.633,10.56,1111122 
LUMCON,ioos:station:LUMCON:101:1,2019-03-06T20:00:00Z,29.2533,-90.6633,1.648,10.5,1111122 
LUMCON,ioos:station:LUMCON:101:1,2019-03-06T20:15:00Z,29.2533,-90.6633,1.65,10.49,1111122 
LUMCON,ioos:station:LUMCON:101:1,2019-03-06T20:30:00Z,29.2533,-90.6633,1.661,10.48,1111122 
LUMCON,ioos:station:LUMCON:101:1,2019-03-06T20:45:00Z,29.2533,-90.6633,1.67,10.5,1111122 
LUMCON,ioos:station:LUMCON:101:1,2019-03-06T21:00:00Z,29.2533,-90.6633,1.669,10.56,1111122 
LUMCON,ioos:station:LUMCON:101:1,2019-03-06T21:15:00Z,29.2533,-90.6633,1.684,10.57,1111122 
LUMCON,ioos:station:LUMCON:101:1,2019-03-06T21:30:00Z,29.2533,-90.6633,1.695,10.6,1111122 
LUMCON,ioos:station:LUMCON:101:1,2019-03-06T21:45:00Z,29.2533,-90.6633,1.698,10.58,1111122 
LUMCON,ioos:station:LUMCON:101:1,2019-03-06T22:00:00Z,29.2533,-90.6633,1.711,10.64,1111122 
LUMCON,ioos:station:LUMCON:101:1,2019-03-06T22:15:00Z,29.2533,-90.6633,1.713,10.72,1111122 
LUMCON,ioos:station:LUMCON:101:1,2019-03-06T22:30:00Z,29.2533,-90.6633,1.722,10.53,1111122 
LUMCON,ioos:station:LUMCON:101:1,2019-03-06T22:45:00Z,29.2533,-90.6633,1.723,10.51,1111122 
LUMCON,ioos:station:LUMCON:101:1,2019-03-06T23:00:00Z,29.2533,-90.6633,1.732,10.61,1111122 
LUMCON,ioos:station:LUMCON:101:1,2019-03-06T23:15:00Z,29.2533,-90.6633,1.74,10.64,1111122 
LUMCON,ioos:station:LUMCON:101:1,2019-03-06T23:30:00Z,29.2533,-90.6633,1.753,10.6,1111122 
LUMCON,ioos:station:LUMCON:101:1,2019-03-06T23:45:00Z,29.2533,-90.6633,1.77,10.65,1111122 
LUMCON,ioos:station:LUMCON:101:1,2019-03-07T00:00:00Z,29.2533,-90.6633,1.776,10.76,1111122 
LUMCON,ioos:station:LUMCON:101:1,2019-03-07T00:15:00Z,29.2533,-90.6633,1.782,10.8,1111122 
LUMCON,ioos:station:LUMCON:101:1,2019-03-07T00:30:00Z,29.2533,-90.6633,1.791,10.83,1111122 
LUMCON,ioos:station:LUMCON:101:1,2019-03-07T00:45:00Z,29.2533,-90.6633,1.796,11.02,1111122 
LUMCON,ioos:station:LUMCON:101:1,2019-03-07T01:00:00Z,29.2533,-90.6633,1.803,11.16,1111122 
LUMCON,ioos:station:LUMCON:101:1,2019-03-07T01:15:00Z,29.2533,-90.6633,1.801,11.23,1111122 
LUMCON,ioos:station:LUMCON:101:1,2019-03-07T01:30:00Z,29.2533,-90.6633,1.807,11.16,1111122 
LUMCON,ioos:station:LUMCON:101:1,2019-03-07T01:45:00Z,29.2533,-90.6633,1.811,11.1,1111122 
LUMCON,ioos:station:LUMCON:101:1,2019-03-07T02:00:00Z,29.2533,-90.6633,1.812,11.1,1111122 
LUMCON,ioos:station:LUMCON:101:1,2019-03-07T02:15:00Z,29.2533,-90.6633,1.82,11.18,1111122 
LUMCON,ioos:station:LUMCON:101:1,2019-03-07T02:30:00Z,29.2533,-90.6633,1.831,11.17,1111122 
LUMCON,ioos:station:LUMCON:101:1,2019-03-07T02:45:00Z,29.2533,-90.6633,1.838,11.15,1111122 
LUMCON,ioos:station:LUMCON:101:1,2019-03-07T03:00:00Z,29.2533,-90.6633,1.84,11.16,1111122 
LUMCON,ioos:station:LUMCON:101:1,2019-03-07T03:15:00Z,29.2533,-90.6633,1.844,11.15,1111122 
LUMCON,ioos:station:LUMCON:101:1,2019-03-07T03:30:00Z,29.2533,-90.6633,1.851,11.15,1111122 
LUMCON,ioos:station:LUMCON:101:1,2019-03-07T03:45:00Z,29.2533,-90.6633,1.853,11.16,1111122 
LUMCON,ioos:station:LUMCON:101:1,2019-03-07T04:00:00Z,29.2533,-90.6633,1.854,11.08,1111122 
LUMCON,ioos:station:LUMCON:101:1,2019-03-07T04:15:00Z,29.2533,-90.6633,1.854,11.09,1111122 
LUMCON,ioos:station:LUMCON:101:1,2019-03-07T04:30:00Z,29.2533,-90.6633,1.861,11.11,1111122 
LUMCON,ioos:station:LUMCON:101:1,2019-03-07T04:45:00Z,29.2533,-90.6633,1.867,10.94,1111122 
LUMCON,ioos:station:LUMCON:101:1,2019-03-07T05:00:00Z,29.2533,-90.6633,1.873,10.94,1111122 
LUMCON,ioos:station:LUMCON:101:1,2019-03-07T05:15:00Z,29.2533,-90.6633,1.873,10.86,1111122 
LUMCON,ioos:station:LUMCON:101:1,2019-03-07T05:30:00Z,29.2533,-90.6633,1.878,10.89,1111122 
LUMCON,ioos:station:LUMCON:101:1,2019-03-07T05:45:00Z,29.2533,-90.6633,1.876,10.75,1111122 
LUMCON,ioos:station:LUMCON:101:1,2019-03-07T06:00:00Z,29.2533,-90.6633,1.886,10.76,1111122 
LUMCON,ioos:station:LUMCON:101:1,2019-03-07T06:15:00Z,29.2533,-90.6633,1.89,10.66,1111122 
LUMCON,ioos:station:LUMCON:101:1,2019-03-07T06:30:00Z,29.2533,-90.6633,1.892,10.62,1111122 
LUMCON,ioos:station:LUMCON:101:1,2019-03-07T06:45:00Z,29.2533,-90.6633,1.893,10.65,1111122 
LUMCON,ioos:station:LUMCON:101:1,2019-03-07T07:00:00Z,29.2533,-90.6633,1.894,10.51,1111122 
LUMCON,ioos:station:LUMCON:101:1,2019-03-07T07:15:00Z,29.2533,-90.6633,1.902,10.53,1111122 
LUMCON,ioos:station:LUMCON:101:1,2019-03-07T07:30:00Z,29.2533,-90.6633,1.901,10.42,1111122 
LUMCON,ioos:station:LUMCON:101:1,2019-03-07T07:45:00Z,29.2533,-90.6633,1.899,10.31,1111122 
LUMCON,ioos:station:LUMCON:101:1,2019-03-07T08:00:00Z,29.2533,-90.6633,1.904,10.34,1111122 
LUMCON,ioos:station:LUMCON:101:1,2019-03-07T08:15:00Z,29.2533,-90.6633,1.901,10.24,1111122 
LUMCON,ioos:station:LUMCON:101:1,2019-03-07T08:30:00Z,29.2533,-90.6633,1.895,10.35,1111122 
LUMCON,ioos:station:LUMCON:101:1,2019-03-07T08:45:00Z,29.2533,-90.6633,1.888,10.53,1111122 
LUMCON,ioos:station:LUMCON:101:1,2019-03-07T09:00:00Z,29.2533,-90.6633,1.879,10.5,1111122 
LUMCON,ioos:station:LUMCON:101:1,2019-03-07T09:15:00Z,29.2533,-90.6633,1.867,10.44,1111122 
LUMCON,ioos:station:LUMCON:101:1,2019-03-07T09:30:00Z,29.2533,-90.6633,1.853,10.46,1111122 
LUMCON,ioos:station:LUMCON:101:1,2019-03-07T09:45:00Z,29.2533,-90.6633,1.846,10.44,1111122 
LUMCON,ioos:station:LUMCON:101:1,2019-03-07T10:00:00Z,29.2533,-90.6633,1.835,10.39,1111122 
LUMCON,ioos:station:LUMCON:101:1,2019-03-07T10:15:00Z,29.2533,-90.6633,1.827,10.41,1111122 
LUMCON,ioos:station:LUMCON:101:1,2019-03-07T10:30:00Z,29.2533,-90.6633,1.81,10.41,1111122 
LUMCON,ioos:station:LUMCON:101:1,2019-03-07T10:45:00Z,29.2533,-90.6633,1.795,10.42,1111122 
LUMCON,ioos:station:LUMCON:101:1,2019-03-07T11:00:00Z,29.2533,-90.6633,1.791,10.41,1111122 
LUMCON,ioos:station:LUMCON:101:1,2019-03-07T11:15:00Z,29.2533,-90.6633,1.774,10.32,1111122 
LUMCON,ioos:station:LUMCON:101:1,2019-03-07T11:30:00Z,29.2533,-90.6633,1.762,10.27,1111122 
LUMCON,ioos:station:LUMCON:101:1,2019-03-07T11:45:00Z,29.2533,-90.6633,1.753,10.22,1111122 
LUMCON,ioos:station:LUMCON:101:1,2019-03-07T12:00:00Z,29.2533,-90.6633,1.743,10.19,1111122 
LUMCON,ioos:station:LUMCON:101:1,2019-03-07T12:15:00Z,29.2533,-90.6633,1.724,10.2,1111122 
LUMCON,ioos:station:LUMCON:101:1,2019-03-07T12:30:00Z,29.2533,-90.6633,1.717,10.14,1111122 
LUMCON,ioos:station:LUMCON:101:1,2019-03-07T12:45:00Z,29.2533,-90.6633,1.711,10.08,1111122 
LUMCON,ioos:station:LUMCON:101:1,2019-03-07T13:00:00Z,29.2533,-90.6633,1.697,10.1,1111122 
LUMCON,ioos:station:LUMCON:101:1,2019-03-07T13:15:00Z,29.2533,-90.6633,1.69,10.02,1111122 
LUMCON,ioos:station:LUMCON:101:1,2019-03-07T13:30:00Z,29.2533,-90.6633,1.685,9.99,1111122 
LUMCON,ioos:station:LUMCON:101:1,2019-03-07T13:45:00Z,29.2533,-90.6633,1.679,9.99,1111122 
LUMCON,ioos:station:LUMCON:101:1,2019-03-07T14:00:00Z,29.2533,-90.6633,1.682,10.02,1111122 
LUMCON,ioos:station:LUMCON:101:1,2019-03-07T14:15:00Z,29.2533,-90.6633,1.687,10.0,1111122 
LUMCON,ioos:station:LUMCON:101:1,2019-03-07T14:30:00Z,29.2533,-90.6633,1.689,10.0,1111122 
LUMCON,ioos:station:LUMCON:101:1,2019-03-07T14:45:00Z,29.2533,-90.6633,1.686,10.0,1111122 
LUMCON,ioos:station:LUMCON:101:1,2019-03-07T15:00:00Z,29.2533,-90.6633,1.687,9.98,1111122 
LUMCON,ioos:station:LUMCON:101:1,2019-03-07T15:15:00Z,29.2533,-90.6633,1.682,9.9,1111122 
LUMCON,ioos:station:LUMCON:101:1,2019-03-07T15:30:00Z,29.2533,-90.6633,1.677,9.93,1111122 
LUMCON,ioos:station:LUMCON:101:1,2019-03-07T15:45:00Z,29.2533,-90.6633,1.689,9.8,1111122 
LUMCON,ioos:station:LUMCON:101:1,2019-03-07T16:00:00Z,29.2533,-90.6633,1.695,10.08,1111122 
LUMCON,ioos:station:LUMCON:101:1,2019-03-07T16:15:00Z,29.2533,-90.6633,1.693,10.04,1111122 
LUMCON,ioos:station:LUMCON:101:1,2019-03-07T16:30:00Z,29.2533,-90.6633,1.696,9.99,1111122 
LUMCON,ioos:station:LUMCON:101:1,2019-03-07T16:45:00Z,29.2533,-90.6633,1.696,9.97,1111122 
LUMCON,ioos:station:LUMCON:101:1,2019-03-07T17:00:00Z,29.2533,-90.6633,1.691,9.98,1111122 
LUMCON,ioos:station:LUMCON:101:1,2019-03-07T17:15:00Z,29.2533,-90.6633,1.703,10.13,1111122 
LUMCON,ioos:station:LUMCON:101:1,2019-03-07T17:30:00Z,29.2533,-90.6633,1.713,10.37,1111122 
LUMCON,ioos:station:LUMCON:101:1,2019-03-07T17:45:00Z,29.2533,-90.6633,1.718,10.18,1111122 
LUMCON,ioos:station:LUMCON:101:1,2019-03-07T18:00:00Z,29.2533,-90.6633,1.73,10.43,1111122 
LUMCON,ioos:station:LUMCON:101:1,2019-03-07T18:15:00Z,29.2533,-90.6633,1.734,10.46,1111122 
LUMCON,ioos:station:LUMCON:101:1,2019-03-07T18:30:00Z,29.2533,-90.6633,1.734,10.36,1111122 
LUMCON,ioos:station:LUMCON:101:1,2019-03-07T18:45:00Z,29.2533,-90.6633,1.738,10.6,1111122 
LUMCON,ioos:station:LUMCON:101:1,2019-03-07T19:00:00Z,29.2533,-90.6633,1.745,10.64,1111122 
LUMCON,ioos:station:LUMCON:101:1,2019-03-07T19:15:00Z,29.2533,-90.6633,1.754,10.62,1111122 
LUMCON,ioos:station:LUMCON:101:1,2019-03-07T19:30:00Z,29.2533,-90.6633,1.763,10.63,1111122 
LUMCON,ioos:station:LUMCON:101:1,2019-03-07T19:45:00Z,29.2533,-90.6633,1.772,10.67,1111122 
LUMCON,ioos:station:LUMCON:101:1,2019-03-07T20:00:00Z,29.2533,-90.6633,1.778,10.68,1111122 
LUMCON,ioos:station:LUMCON:101:1,2019-03-07T20:15:00Z,29.2533,-90.6633,1.781,10.73,1111122 
LUMCON,ioos:station:LUMCON:101:1,2019-03-07T20:30:00Z,29.2533,-90.6633,1.778,10.72,1111122 
LUMCON,ioos:station:LUMCON:101:1,2019-03-07T20:45:00Z,29.2533,-90.6633,1.772,10.73,1111122 
LUMCON,ioos:station:LUMCON:101:1,2019-03-07T21:00:00Z,29.2533,-90.6633,1.776,10.8,1111122 
LUMCON,ioos:station:LUMCON:101:1,2019-03-07T21:15:00Z,29.2533,-90.6633,1.781,10.9,1111122 
LUMCON,ioos:station:LUMCON:101:1,2019-03-07T21:30:00Z,29.2533,-90.6633,1.788,10.93,1111122 
LUMCON,ioos:station:LUMCON:101:1,2019-03-07T21:45:00Z,29.2533,-90.6633,1.794,11.04,1111122 
LUMCON,ioos:station:LUMCON:101:1,2019-03-07T22:00:00Z,29.2533,-90.6633,1.794,11.01,1111122 
LUMCON,ioos:station:LUMCON:101:1,2019-03-07T22:15:00Z,29.2533,-90.6633,1.785,11.08,1111122 
LUMCON,ioos:station:LUMCON:101:1,2019-03-07T22:30:00Z,29.2533,-90.6633,1.788,11.14,1111122 
LUMCON,ioos:station:LUMCON:101:1,2019-03-07T22:45:00Z,29.2533,-90.6633,1.798,11.27,1111122 
LUMCON,ioos:station:LUMCON:101:1,2019-03-07T23:00:00Z,29.2533,-90.6633,1.803,11.36,1111122 
LUMCON,ioos:station:LUMCON:101:1,2019-03-07T23:15:00Z,29.2533,-90.6633,1.794,11.31,1111122 
LUMCON,ioos:station:LUMCON:101:1,2019-03-07T23:30:00Z,29.2533,-90.6633,1.784,11.3,1111122 
LUMCON,ioos:station:LUMCON:101:1,2019-03-07T23:45:00Z,29.2533,-90.6633,1.782,11.29,1111122 
LUMCON,ioos:station:LUMCON:101:1,2019-03-08T00:00:00Z,29.2533,-90.6633,1.782,11.3,1111122 
LUMCON,ioos:station:LUMCON:101:1,2019-03-08T00:15:00Z,29.2533,-90.6633,1.793,11.1,1111122 
LUMCON,ioos:station:LUMCON:101:1,2019-03-08T00:30:00Z,29.2533,-90.6633,1.804,11.05,1111122 
LUMCON,ioos:station:LUMCON:101:1,2019-03-08T00:45:00Z,29.2533,-90.6633,1.802,11.02,1111122 
LUMCON,ioos:station:LUMCON:101:1,2019-03-08T01:00:00Z,29.2533,-90.6633,1.796,11.08,1111122 
LUMCON,ioos:station:LUMCON:101:1,2019-03-08T01:15:00Z,29.2533,-90.6633,1.794,11.02,1111122 
LUMCON,ioos:station:LUMCON:101:1,2019-03-08T01:30:00Z,29.2533,-90.6633,1.788,11.12,1111122 
LUMCON,ioos:station:LUMCON:101:1,2019-03-08T01:45:00Z,29.2533,-90.6633,1.794,11.07,1111122 
LUMCON,ioos:station:LUMCON:101:1,2019-03-08T02:00:00Z,29.2533,-90.6633,1.791,11.4,1111122 